Total_Precipitation_Accumulation
2.54 3.17 4.43 4.31 3.68 3.02 2.82 2.96 3.02 2.82 2.71 2.69 2.73 2.73 2.79 2.86 2.97 2.96 2.76 2.81 2.83 2.86 2.70 2.47 2.36 2.28 2.35 2.40 2.32 2.10 1.92 1.83 1.98 2.11 2.23 2.37 2.56 2.75 2.91 3.08 3.00 2.31 2.18
1.97 2.83 4.04 3.91 3.28 2.60 2.60 2.61 2.74 2.61 2.49 2.54 2.68 2.61 2.47 2.53 2.70 2.75 2.64 2.78 2.79 2.80 2.62 2.45 2.23 2.01 2.02 2.06 2.11 1.94 1.80 2.00 2.35 2.57 2.86 2.91 2.98 3.00 3.01 3.09 3.13 2.49 2.23
1.62 2.22 3.07 3.46 2.86 2.49 2.44 2.34 2.44 2.39 2.32 2.52 2.66 2.61 2.42 2.38 2.65 2.74 2.72 2.78 2.93 2.86 2.51 2.34 2.08 1.78 1.79 1.85 1.83 1.83 1.91 2.20 2.78 3.21 3.31 2.87 2.51 2.81 2.88 2.98 2.86 2.31 2.16
1.42 1.73 2.25 2.74 2.41 2.24 2.18 2.24 2.32 2.29 2.25 2.37 2.43 2.55 2.52 2.45 2.69 2.86 2.75 2.84 3.01 2.74 2.47 2.24 1.97 1.67 1.59 1.64 1.72 1.84 2.05 2.42 2.88 3.39 3.11 2.55 2.13 2.36 2.50 2.43 2.33 2.11 1.99
1.34 1.57 1.97 2.17 2.11 2.07 2.07 2.25 2.36 2.34 2.25 2.31 2.42 2.56 2.64 2.70 2.76 2.88 2.77 2.91 2.96 2.87 2.58 2.22 1.97 1.69 1.60 1.61 1.62 1.76 2.08 2.54 2.98 3.03 2.41 2.37 2.47 2.40 2.25 2.16 2.18 1.98 1.71
1.33 1.57 1.82 1.96 1.91 2.02 2.02 2.26 2.41 2.45 2.32 2.32 2.48 2.48 2.58 2.80 2.97 3.08 2.96 2.95 2.97 2.85 2.51 2.21 1.96 1.72 1.61 1.61 1.71 1.81 2.16 2.59 2.63 2.13 1.86 1.97 1.88 2.17 2.10 2.07 1.99 1.76 1.45
1.29 1.62 1.77 1.93 1.96 2.13 2.30 2.46 2.48 2.41 2.29 2.29 2.32 2.22 2.35 2.79 3.09 3.21 3.21 3.12 3.04 2.87 2.49 2.19 1.96 1.75 1.65 1.70 1.80 1.83 2.09 2.45 2.15 1.80 1.67 1.81 1.62 1.81 1.98 1.99 1.95 1.67 1.37
1.19 1.54 1.75 2.03 2.07 2.17 2.38 2.68 2.73 2.43 2.34 2.28 2.32 2.21 2.29 2.56 2.94 3.10 3.29 3.33 3.16 2.89 2.43 2.16 1.94 1.74 1.70 1.76 1.85 1.86 1.99 1.99 1.63 1.48 1.47 1.47 1.42 1.58 1.85 1.75 1.71 1.56 1.32
1.25 1.38 1.64 1.96 2.14 2.25 2.42 2.65 2.67 2.62 2.55 2.51 2.52 2.36 2.38 2.56 2.77 2.97 3.33 3.31 3.13 2.93 2.54 2.20 1.96 1.78 1.77 1.78 1.83 1.85 1.97 2.06 1.68 1.57 1.42 1.32 1.27 1.45 1.76 1.62 1.51 1.51 1.41
1.52 1.39 1.49 1.72 2.11 2.24 2.30 2.54 2.72 2.70 2.67 2.66 2.70 2.59 2.75 2.88 2.89 2.97 3.26 3.39 3.17 2.92 2.61 2.42 2.17 1.95 1.92 1.79 1.83 1.99 2.14 1.99 1.68 1.65 1.49 1.11 1.20 1.51 1.82 1.81 1.73 1.74 1.60
1.76 1.73 1.75 1.69 1.78 1.99 2.11 2.41 2.97 2.97 2.88 2.87 2.99 3.11 3.29 3.54 3.48 3.52 3.46 3.62 3.52 3.25 3.11 2.94 2.71 2.35 2.18 1.92 2.04 2.19 2.01 1.86 1.96 1.85 1.50 1.15 1.28 1.83 2.08 2.08 1.97 1.95 1.91
1.89 1.92 2.14 1.94 1.83 1.94 1.98 2.77 3.60 3.46 3.30 3.30 3.41 3.48 3.76 3.89 4.18 3.67 4.00 4.33 4.40 4.26 4.12 3.89 3.74 3.09 2.37 1.97 2.14 2.22 1.91 1.86 2.01 1.76 1.40 1.29 1.46 2.00 2.30 2.14 2.07 2.04 2.01
2.19 2.04 2.00 2.13 2.23 2.27 2.41 2.78 3.25 3.65 3.69 3.65 3.58 3.53 3.78 3.70 3.87 3.88 4.34 5.16 5.26 4.71 4.31 4.41 4.24 3.36 2.86 2.87 2.65 2.36 2.27 2.01 2.02 1.75 1.61 1.60 1.71 2.13 2.45 2.31 2.23 2.15 1.96
2.79 2.74 2.75 2.74 2.78 2.82 2.67 2.64 2.79 3.04 3.10 3.09 3.21 3.27 3.39 3.75 3.89 4.06 4.45 4.55 4.64 4.44 4.64 4.52 4.36 3.81 3.47 3.13 2.81 2.79 2.74 2.45 2.29 2.19 2.18 2.05 2.06 2.33 2.64 2.61 2.41 2.32 2.21
3.28 3.49 4.09 4.03 3.54 3.29 3.05 2.84 2.56 2.81 2.66 2.48 2.69 2.99 3.08 3.30 3.62 3.82 3.75 3.81 3.57 3.76 4.10 4.23 3.85 3.90 3.72 3.58 3.36 3.11 3.08 2.82 2.52 2.41 2.46 2.56 2.45 2.43 2.68 2.82 2.72 2.68 2.73
4.01 4.07 4.35 4.88 4.31 3.70 3.20 2.98 2.76 2.61 2.68 2.55 2.70 2.65 2.91 3.08 3.18 3.28 3.25 3.41 3.27 3.38 3.56 3.57 3.57 3.92 3.89 3.70 3.33 3.05 2.93 2.90 2.70 2.50 2.64 2.70 2.66 2.43 2.55 2.95 3.20 3.19 3.29
4.56 4.72 4.83 5.17 4.91 4.48 3.94 3.37 2.89 2.70 2.57 2.63 2.78 2.58 2.67 2.84 2.90 2.95 3.04 3.04 3.08 2.99 3.08 3.11 3.21 3.54 3.57 3.41 3.16 2.85 2.75 2.79 2.79 2.71 2.58 2.68 2.67 2.68 2.62 2.78 3.08 3.21 3.49
5.22 5.49 5.53 5.28 5.34 5.06 4.49 3.92 3.49 3.24 3.01 2.85 2.69 2.56 2.37 2.47 2.52 2.65 2.62 2.60 2.67 2.63 2.70 2.92 2.98 3.26 3.46 3.45 3.34 2.92 2.86 2.84 2.71 2.80 2.70 2.65 2.98 2.74 2.94 3.09 3.09 3.06 3.47
6.38 6.83 6.60 5.96 5.61 5.20 4.75 4.34 4.20 4.01 3.65 3.25 3.02 2.82 2.65 2.43 2.37 2.47 2.56 2.65 2.36 2.43 2.57 2.45 2.80 3.07 3.38 3.42 2.91 2.87 2.65 2.54 2.54 2.39 2.58 2.50 2.70 2.87 3.13 3.16 3.18 3.07 3.47
6.67 7.39 7.29 6.63 5.85 5.24 4.96 4.66 4.59 4.29 3.87 3.41 3.24 3.10 2.78 2.63 2.41 2.50 2.38 2.25 2.07 2.29 2.63 2.79 3.23 3.24 3.20 3.19 2.62 2.79 2.58 2.23 2.29 2.39 2.35 2.45 2.50 2.36 2.76 3.15 3.37 2.90 3.28
5.70 6.26 6.16 5.55 5.10 4.65 4.24 3.76 3.76 3.63 3.41 3.21 3.01 2.81 2.77 2.69 2.52 2.58 2.37 2.46 2.19 2.28 2.43 2.55 2.86 3.04 2.99 2.96 3.21 3.26 2.81 2.34 2.32 2.23 2.17 2.43 2.45 2.47 2.90 3.40 3.56 3.40 2.99
4.21 4.43 3.93 3.74 3.77 3.49 3.34 3.34 3.29 3.16 2.88 2.74 2.76 2.95 2.61 2.59 2.48 2.32 2.52 2.30 2.25 2.51 2.56 2.67 2.92 3.00 2.95 2.99 3.15 3.49 3.24 3.16 2.68 1.99 2.20 2.36 2.44 2.70 2.77 2.91 3.26 3.55 3.16
2.99 2.97 2.74 2.69 3.02 3.05 3.14 3.22 3.23 3.20 3.03 2.84 2.66 2.81 2.50 2.34 2.37 2.46 2.40 2.45 2.59 2.29 2.55 2.75 2.78 2.91 2.97 2.88 2.85 3.24 3.25 3.23 2.80 2.20 2.05 2.15 2.38 2.69 2.72 2.83 2.66 2.93 3.15
2.09 2.20 2.46 2.55 2.70 2.67 2.83 2.82 2.74 2.52 2.41 2.34 2.32 2.47 2.58 2.37 2.28 2.29 2.39 2.71 2.82 2.54 2.75 2.35 2.50 2.78 2.92 2.82 2.83 2.65 2.57 2.72 2.92 2.81 2.41 2.15 2.25 2.39 2.50 2.53 2.66 2.93 3.10
1.76 2.02 2.35 2.46 2.51 2.44 2.45 2.59 2.79 2.70 2.71 2.58 2.49 2.74 2.80 2.84 2.59 2.27 2.30 2.60 2.77 2.75 2.84 2.66 2.86 2.65 2.54 2.50 2.58 2.63 2.63 2.52 2.34 2.57 2.64 2.46 2.30 2.03 2.00 2.09 2.24 2.42 2.50
1.66 1.78 2.02 2.17 2.36 2.39 2.45 2.57 2.61 2.67 2.83 2.78 2.72 2.60 2.52 2.61 2.55 2.35 2.36 2.69 2.73 2.73 2.88 2.76 2.72 2.55 2.51 2.49 2.41 2.35 2.65 2.65 2.49 2.58 2.38 2.32 2.24 1.80 1.70 1.79 1.88 1.98 2.14